Diretta Meteo Bologna-Borgo Panigale, Italiadomenica 16 giugno ore 20:50

Mappa
Sereno 28 °C Sereno 24 Ore: T.min 19 T.max 31
Ponente Nord Km/h 3.7 Punto di rugiada: 15 °C Umidità: 45% Visibilità: 10 Km
Il sole sorge alle: 05:27 Il sole tramonta alle: 21:03
16 Giugno 2019 20:50 tempo osservato: Sereno Sereno 28 45 1012 vento: Nord N 3.7
16 Giugno 2019 20:20 tempo osservato: Sereno Sereno 29 39 1012 vento: Nord N 5.5
16 Giugno 2019 19:50 tempo osservato: Sereno Sereno 29 42 1012 vento: Nord NO 7.4
16 Giugno 2019 19:20 tempo osservato: Sereno Sereno 30 42 1012 vento: Nord NO 9.3
16 Giugno 2019 18:50 tempo osservato: Sereno Sereno 30 45 1012 vento: Nord N 5.5
16 Giugno 2019 18:20 tempo osservato: Sereno Sereno 30 40 1012 vento: Nord N 5.5
16 Giugno 2019 17:50 tempo osservato: Sereno Sereno 31 37 1012 vento: Nord N 5.5
16 Giugno 2019 17:20 tempo osservato: Sereno Sereno 30 40 1012 vento: Nord NO 7.4
16 Giugno 2019 16:50 tempo osservato: Sereno Sereno 30 42 1012 vento: Nord O/SO 9.3
16 Giugno 2019 16:20 tempo osservato: Sereno Sereno 30 42 1012 vento: Nord O 11.1
16 Giugno 2019 15:50 tempo osservato: Sereno Sereno 30 42 1013 vento: Nord O 11.1
16 Giugno 2019 15:20 tempo osservato: Sereno Sereno 30 42 1013 vento: Nord N/NO 9.3
16 Giugno 2019 14:50 tempo osservato: Sereno Sereno 30 42 1013 vento: Nord NO 11.1
16 Giugno 2019 14:20 tempo osservato: Sereno Sereno 29 42 1013 vento: Nord NO 11.1
16 Giugno 2019 13:50 tempo osservato: Sereno Sereno 29 45 1013 vento: Nord NO 11.1
16 Giugno 2019 13:20 tempo osservato: Sereno Sereno 28 51 1014 vento: Nord O 9.3
16 Giugno 2019 12:50 tempo osservato: Sereno Sereno 28 48 1014 vento: Nord O/NO 11.1
16 Giugno 2019 12:20 tempo osservato: Sereno Sereno 28 51 1014 vento: Nord NO 11.1
16 Giugno 2019 11:50 tempo osservato: Sereno Sereno 27 50 1014 vento: Nord N/NO 13
16 Giugno 2019 11:20 tempo osservato: Sereno Sereno 26 54 1014 vento: Nord O 13
16 Giugno 2019 10:50 tempo osservato: Sereno Sereno 26 54 1014 vento: Nord O/NO 13
16 Giugno 2019 10:20 tempo osservato: Sereno Sereno 25 50 1014 vento: Nord O/NO 11.1
16 Giugno 2019 09:50 tempo osservato: Sereno Sereno 24 53 1014 vento: Nord O/NO 9.3
16 Giugno 2019 09:20 tempo osservato: Sereno Sereno 24 57 1014 vento: Nord N 5.5
16 Giugno 2019 08:50 tempo osservato: Sereno Sereno 23 56 1014 vento: Nord O 9.3
16 Giugno 2019 08:20 tempo osservato: Sereno Sereno 22 56 1014 vento: Nord O 7.4
16 Giugno 2019 07:50 tempo osservato: Sereno Sereno 22 64 1014 vento: Nord S/SO 7.4
16 Giugno 2019 07:20 tempo osservato: Sereno Sereno 20 72 1014 vento: Nord N 5.5
16 Giugno 2019 06:50 tempo osservato: Sereno Sereno 19 77 1013 vento: Nord S/SO 9.3
16 Giugno 2019 06:20 tempo osservato: Sereno Sereno 19 77 1013 vento: Nord S/SO 11.1
16 Giugno 2019 05:50 tempo osservato: Sereno Sereno 19 77 1013 vento: Nord S/SO 13
16 Giugno 2019 05:20 tempo osservato: Sereno Sereno 19 77 1013 vento: Nord S 9.3
16 Giugno 2019 04:50 tempo osservato: Sereno Sereno 19 77 1013 vento: Nord S/SO 13
16 Giugno 2019 03:50 tempo osservato: Sereno Sereno 20 72 1013 vento: Nord S/SO 9.3
16 Giugno 2019 03:20 tempo osservato: Sereno Sereno 20 77 1013 vento: Nord N 3.7
16 Giugno 2019 02:50 tempo osservato: Sereno Sereno 21 73 1013 vento: Nord S/SO 11.1
16 Giugno 2019 01:50 tempo osservato: Sereno Sereno 22 68 1013 vento: Nord S/SO 9.3
16 Giugno 2019 01:20 tempo osservato: Sereno Sereno 22 68 1013 vento: Nord S 11.1
16 Giugno 2019 00:50 tempo osservato: Sereno Sereno 22 73 1013 vento: Nord S 9.3
16 Giugno 2019 00:20 tempo osservato: Sereno Sereno 23 68 1013 vento: Nord S/SO 11.1
15 Giugno 2019 23:50 tempo osservato: Sereno Sereno 24 64 1013 vento: Nord S/SO 13
15 Giugno 2019 23:20 tempo osservato: Sereno Sereno 24 64 1013 vento: Nord S/SO 11.1
15 Giugno 2019 22:50 tempo osservato: Sereno Sereno 25 65 1013 vento: Nord S/SO 13
15 Giugno 2019 22:20 tempo osservato: Sereno Sereno 25 65 1012 vento: Nord S/SO 16.7
15 Giugno 2019 21:50 tempo osservato: Sereno Sereno 26 61 1012 vento: Nord S 18.5